Location: Haliburton Scout Reserve
(45.0900°N, 78.3200°W)
Time: 08:47:03
(UTC-04:00)

S-56A Canister/Altair - Pass Details

Date: 06 February 2023
Orbit: 639 x 2493 km, 38.9° (Epoch: 27 March)

Event Time Altitude Azimuth Distance (km) Brightness Sun altitude
Rises 15:07:18 0° 270° (W) 3,286 11.4 19.4°
Reaches altitude 10° 15:09:50 10° 257° (WSW) 2,526 11.2 19.1°
Maximum altitude 15:14:45 27° 201° (SSW) 1,949 11.2 18.5°
Drops below altitude 10° 15:21:22 10° 148° (SSE) 3,469 11.1 17.7°
Sets 15:25:31 0° 138° (SE) 4,795 11.6 17.2°
